Weather in Magnitnyy

Russia / Kursk Oblast     52°26′00″N   35°33′25″E
temp.,
°C
wind,
m/s
gust,
m/s
humid.,
%
clouds,
%
prec.,
mm/h
press.,
hPa
HPBL,
m
7 march, sun
sun700:00−11w45910 0.0 102079
03:00−11sw510910 0.0 1019182
06:00−10sw715881 0.0 1016341
09:00−7sw10188350 0.0 1012642
12:00−3wsw111888100 0.0 10081072
15:00−1wsw121892100 0.3 10041253
18:00−1wsw111892100 0.8 10021233
21:00−1w101596100 2.1 1003946
8 march, mon
mon800:00−4wsw4108699 0.8 1004220
03:00−5wsw51084100 0.8 1004195
06:00−5wsw51188100 0.0 1003343
09:00−5w61293100 0.1 1004723
12:00−3wnw698466 0.0 1006995
15:00−3wnw688182 0.3 10071037
18:00−5w3489100 0.2 100863
21:00−7nw3693100 0.3 1010135
9 march, tue
tue900:00−12nw349439 0.0 101135
03:00−10nw369661 0.1 1012143
06:00−10nnw499593 0.2 1014283
09:00−13nnw489590 0.2 1017267
12:00−10nnw478866 0.0 1019560
15:00−9nw468482 0.1 1020817
18:00−10wnw3490100 0.1 102084
21:00−13nw349197 0.1 102381
10 march, wed
wed1000:00−15nw339251 0.0 102420
03:00−16wnw229525 0.0 102520
06:00−16wsw239429 0.0 102520
09:00−12sw359360 0.0 1025186
12:00−8wsw4791100 0.0 1025416
15:00−5wsw5787100 0.1 1024745
18:00−6wsw3794100 0.2 1024322
21:00−8w2496100 0.3 102569
11 march, thu
thu1100:00−13ene5995100 0.4 1026235
03:00−14e589599 0.5 1028269
06:00−17e489598 0.1 1029245
09:00−18e589496 0.1 1030225
12:00−8s35880 0.0 1028285
15:00−6s45863 0.0 1027499
18:00−8s34900 0.0 102750
21:00−11sse45890 0.0 102873